Miscellaneous Local Product
Issued by NWS North Platte, NE

Home | Current Version | Previous Version | Text Only | Print | Product List | Glossary On
Versions: 1 2 3 4 5 6 7 8 9 10 11 12 13 14 15 16 17 18 19 20 21 22 23 24 25 26 27 28 29 30 31 32 33 34 35 36 37 38 39 40 41 42 43 44 45 46 47 48 49 50
000
AXUS43 KLBF 270310
MISLBF


WESTERN AND NORTH CENTRAL NEBRASKA HOURLY WEATHER ROUNDUP
NATIONAL WEATHER SERVICE NORTH PLATTE NE
1000 PM CDT THU APR 26 2018

NOTE: "FAIR" INDICATES FEW OR NO CLOUDS BELOW 12,000 FEET WITH NO
SIGNIFICANT WEATHER AND/OR OBSTRUCTIONS TO VISIBILITY.

NOTE: STATIONS NOT REPORTING VARIABLES SUCH AS SKY/WEATHER OR
PRESSURE ARE PROVIDED BY RAWS AND APRS NETWORKS AND ARE NOT UNDER
NATIONAL WEATHER SERVICE QUALITY CONTROL.

...OBSERVATIONS IN AND NEAR THE EASTERN PANHANDLE OF NEBRASKA...

CITY           SKY/WX    TMP DP  RH WIND       PRES   REMARKS
PINE RIDGE     CLEAR     46  34  62 E6        30.13R
GORDON         FAIR      45  34  66 CALM      30.14R
CHADRON        CLEAR     46  33  60 W9        30.14R
ALLIANCE       CLEAR     42  30  62 W3        30.16R
SIDNEY         CLEAR     36  28  73 NE5       30.20R WCI  32
CRESCENT LAKE    N/A     52  27  38 N5          N/A
$$

...OBSERVATIONS IN NORTHERN NEBRASKA AND FAR SOUTHERN SOUTH DAKOTA...

CITY           SKY/WX    TMP DP  RH WIND       PRES   REMARKS
WINNER         FAIR      51  31  46 SW5       30.08R
VALENTINE      CLEAR     48  31  51 W8        30.11S
AINSWORTH      CLEAR     49  31  49 W6        30.11S
O`NEILL        CLEAR     49  28  42 CALM      30.09S
THEDFORD       CLEAR     49  29  46 W3        30.14S
BROKEN BOW     CLEAR     39  29  67 CALM      30.12S
ORD            CLEAR     40  31  70 SW3       30.10R
ALBION         CLEAR     41  34  77 CALM      30.10R
VALENTINE NWR    N/A     50  30  46 CALM        N/A
HALSEY           N/A     50  26  39 CALM        N/A
BUTTE            N/A     52  29  41 W3          N/A
CHAMBERS         N/A     43  23  45 CALM        N/A
EWING            N/A     50  30  46 N3          N/A
$$

...OBSERVATIONS IN SOUTHWEST NEBRASKA AND FAR NORTHEAST COLORADO...

CITY           SKY/WX    TMP DP  RH WIND       PRES   REMARKS
WRAY           FAIR      50  28  43 N5        30.21R
HOLYOKE        FAIR      46  32  57 CALM      30.20R
IMPERIAL       CLEAR     47  31  53 CALM      30.18R
OGALLALA       CLEAR     46  31  58 CALM      30.18R
NORTH PLATTE   CLEAR     45  29  53 CALM      30.16R
MCCOOK         CLEAR     46  29  51 NW7       30.16R
LEXINGTON      CLEAR     44  29  57 CALM      30.15R
STAPLETON        N/A     48  28  46 CALM        N/A
GOTHENBURG       N/A     55  25  31 N3          N/A
CALLAWAY         N/A     52  30  43 N5          N/A
$$

...OBSERVATIONS IN CENTRAL LINCOLN COUNTY AREA...

CITY           SKY/WX    TMP DP  RH WIND       PRES   REMARKS
N.P. AIRPORT   CLEAR     45  29  53 CALM      30.16R
N.P. DOWNTOWN    N/A     50  30  46 CALM        N/A
N.P. SOUTHEAST   N/A     52  28  39 CALM        N/A
N.P. HILLCREST   N/A     52  29  40 N3          N/A
$$

...OBSERVATIONS ACROSS THE ROCKIES AND WESTERN HIGH PLAINS...

CITY           SKY/WX    TMP DP  RH WIND       PRES   REMARKS
RAPID CITY     CLEAR     44  31  60 CALM      30.11R
SCOTTSBLUFF    CLEAR     50  30  46 W3        30.18R
CHEYENNE       CLEAR     48  27  44 CALM      30.26R
DENVER         CLEAR     43  26  51 SE8       30.25R
BERTHOUD PASS  FAIR      27  16  63 NW21      30.45R WCI  13
MONARCH PASS   CLEAR     30  23  74 NE16      30.53R WCI  19
ASPEN          CLEAR     46  22  38 SW9       30.26R
STEAMBOAT      FAIR      49  22  34 CALM      30.25R
LARAMIE        CLEAR     44  18  35 N7        30.27R
CASPER         CLEAR     40  26  57 CALM      30.20R
$$

...OBSERVATIONS ACROSS THE NORTHERN PLAINS...

CITY           SKY/WX    TMP DP  RH WIND       PRES   REMARKS
BISMARCK       CLEAR     56  30  37 W7        29.95S
FARGO          FAIR      49  31  49 S10       29.88F
PIERRE         CLEAR     54  27  35 SW7       30.03S
SIOUX FALLS    CLEAR     45  31  58 CALM      30.03S
$$

...OBSERVATIONS ACROSS THE CENTRAL AND SOUTHERN PLAINS...

CITY           SKY/WX    TMP DP  RH WIND       PRES   REMARKS
OMAHA          CLEAR     50  29  44 N8        30.05R
GRAND ISLAND   CLEAR     48  30  49 NW5       30.12R
KANSAS CITY    MOCLDY    58  43  57 W7        29.96R
WICHITA        PTCLDY    57  45  64 N6        30.04R
DODGE CITY     CLEAR     50  36  58 N9        30.15R
OKLAHOMA CITY  MOCLDY    60  44  55 N8        30.04R
DALLAS         MOCLDY    64  50  60 E7        29.97S
AMARILLO       CLEAR     52  36  54 N10       30.18R
$$




USA.gov is the U.S. government's official web portal to all federal, state and local government web resources and services.